METEOR 2-11 DEB, 40705

Orbit data source: Space-Track

METEOR 2-11 DEB, 40705 is space debris in LEO originally from a launch on Thu, 05 Jul 1984 UTC launched from the Plesetsk Missile And Space Complex (PKMTR). Debris objects in space refer to the collection of defunct objects orbiting the Earth. Examples of debris include non-operational satellites, rocket bodies, and fragments generated from explosions, collisions, or faulty payload assembly.

Loading next visibility...
Identifier
40705, 1984-072G
Orbit
LEO
Last TLE update
21 hours ago
Origin
Manufacturer
Unknown
Mission
Spacecraft
Bus & Motor
Unknown
Mass
Unknown
Launch date (UTC)
1984-07-05 (41 years ago)
Launch vehicle
Unknown
Launch site
Plesetsk Missile And Space Complex (PKMTR)
Object type
Payload
Rocket body
Debris
Shape & HBR
Unknown
Radar Cross Section
Small (<0.1 m²)

Expand to show TLE details & history

TLE from 21 hours ago
0 METEOR 2-11 DEB
1 40705U 84072G   25191.57483575  .00000884  00000-0  62762-3 0  9995
2 40705  82.5199 285.5481 0020252 299.8986  60.0169 13.96550010539635
Epoch: 2025-07-10T13:47Z
TLE epoch observation values (Epoch: 2025-07-10T13:47:45.808Z)
Latitude
-0.00003°
Longitude
149.86808°
Altitude
901.334 km
Speed
7.405 km/s
True Right ascension
19h 02m 11s
True Declination
0° 00' 00"
Sunlit
Object was in full shadow at epoch
Visualization orbit readout
Latitude
42.01062°
Longitude
-37.61024°
Altitude
925.721 km
Speed
7.386 km/s
Apparent Right ascension
08h 49m 02s
Apparent Declination
5° 27' 21"
Sunlit
Object is in daylight
Visualization observer readout
Local Sidereal Time
23:23:16
Azimuth
47.309° ENE
Elevation
-32.413°
Doppler factor
1
Orbital elements
Apogee altitude
917.648 km
Perigee altitude
888.157 km
Semi-major axis
7,281.039 km
Eccentricity
0.00203
Inclination
82.5199°
RAAN
285.5481°
Arg. of periapsis
299.8986°
True anomaly
Unknown
Mean anomaly
60.0169°
Eccentric anomaly
Unknown
Mean motion
3.49344 °/min
Orbital period
103.05 mins
BSTAR
0.00062762
Loading maneuver chart data...
Loading SW <> Apogee altitude chart data...
Loading historical data...
Loading historical data...
Loading historical data...
Loading historical data...
Loading historical data...
Loading historical data...
Loading historical data...

METEOR 2-11 DEB Visibility forecast

Observer location: undefined°, undefined°

Span
Click to sort rows by Start time (UTC) header in descending order
Start Az.
Max El. time (UTC)
Max El. Az.
Max El.
End time (UTC)
End Az.
11 mins2025-07-11 17:53:17.621Z359.068° N2025-07-11 17:58:17.621Z71.027° E42.689°2025-07-11 18:04:17.621Z163.691° S
4 mins2025-07-11 19:40:17.621Z293.786° NW2025-07-11 19:41:17.621Z282.306° WNW15.312°2025-07-11 19:44:17.621Z249.102° W
5 mins2025-07-12 05:30:17.621Z104.205° ESE2025-07-12 05:32:17.621Z81.584° E15.019°2025-07-12 05:35:17.621Z49.834° ENE
10 mins2025-07-12 07:11:17.621Z199.32° SSW2025-07-12 07:15:17.621Z266.796° W42.785°2025-07-12 07:21:17.621Z2.427° NNE
|